OPS 4682 DEB, 38459

Orbit data source: Space-Track

OPS 4682 DEB, 38459 is space debris in LEO originally from a launch on Sat, 03 Apr 1965 UTC launched from the Air Force Western Test Range (AFWTR). Debris objects in space refer to the collection of defunct objects orbiting the Earth. Examples of debris include non-operational satellites, rocket bodies, and fragments generated from explosions, collisions, or faulty payload assembly.

Loading next visibility...
Identifier
38459, 1965-027FQ
Orbit
LEO
Country
Flag of USUS
Related business
Manufacturer
Unknown
Mission
Spacecraft
Bus & Motor
Unknown
Mass
Unknown
Launch date (UTC)
1965-04-03 (61 years ago)
Launch vehicle
Unknown
Launch site
Air Force Western Test Range (AFWTR)
Object type
Payload
Rocket body
Debris
Shape & HBR
Unknown shape, 0.1 m
Radar Cross Section
Small (<0.1 m²)

Expand to show TLE details & history
Last TLE update: 2 days ago

TLE from 2 days ago
0 OPS 4682 DEB
1 38459U 65027FQ  25300.61490211 -.00000028  00000-0 -12929-3 0  9991
2 38459  90.2411   1.0601 0030284 171.3641 188.8004 12.92868244518432
Epoch: 2025-10-27T14:45Z
TLE epoch observation values (Epoch: 2025-10-27T14:45:27.542Z)
Latitude
-0.00004°
Longitude
103.48113°
Altitude
1,315.986 km
Speed
7.188 km/s
True Right ascension
00h 04m 14s
True Declination
0° 00' 00"
Sunlit
Object was in full shadow at epoch
Visualization orbit readout
Latitude
Unknown
Longitude
Unknown
Altitude
Unknown
Speed
Unknown
Apparent Right ascension
Unknown
Apparent Declination
Unknown
Sunlit
N/A
Visualization observer readout
Local Sidereal Time
22:15:24
Azimuth
Unknown
Elevation
Unknown
Doppler factor
Unknown
Orbital elements
Apogee altitude
1,310.509 km
Perigee altitude
1,264.081 km
Semi-major axis
7,665.432 km
Eccentricity
0.00303
Inclination
90.2411°
RAAN
1.0601°
Arg. of periapsis
171.3641°
True anomaly
188.7475°
Mean anomaly
188.8004°
Eccentric anomaly
188.77393°
Mean motion
3.23399 °/min
Orbital period
111.32 mins
BSTAR
-0.00012929
Loading maneuver chart data...
Computing Atmospheric mass density...
Loading historical data...
Loading historical data...
Loading historical data...
Loading historical data...
Loading historical data...
Loading historical data...
Loading historical data...

Documentation

Showing up to 5 results
|